Probability
0 0 0 0 0 0 0 0 0 0 0 0 0 0 0 0 0 0 0 0 0 0 0 0 0 0 0 0 1 2 3 3 2 7 27 55 69 69
0 0 0 0 0 0 0 0 0 0 0 0 0 0 0 0 0 0 0 0 0 0 0 0 0 0 0 0 0 1 1 1 2 6 25 49 60 60
0 0 0 0 0 0 0 0 0 0 0 0 0 0 0 0 0 0 0 0 0 0 0 0 0 0 0 0 0 0 0 0 1 6 18 36 45 46
0 0 0 0 0 0 0 0 0 0 0 0 0 0 0 0 0 0 0 0 0 0 0 0 0 0 0 0 0 0 0 0 1 4 11 20 27 29
0 0 0 0 0 0 0 0 0 0 0 0 0 0 0 0 0 0 0 0 0 0 0 0 0 0 0 0 0 0 0 0 0 1 4 7 10 12
0 0 0 0 0 0 0 0 0 0 0 0 0 0 0 0 0 0 0 0 0 0 0 0 0 0 0 0 0 0 0 0 0 0 1 1 2 2
0 0 0 0 0 0 0 0 0 0 0 0 0 0 0 0 0 0 0 0 0 0 0 0 0 0 0 0 0 0 0 0 0 0 0 0 0 0
0 0 0 0 0 0 0 0 0 0 0 0 0 0 0 0 0 0 0 0 0 0 0 0 0 0 0 0 0 0 0 0 0 0 0 0 0 0
0 0 0 0 0 0 0 0 0 0 0 0 0 0 0 0 0 0 0 0 0 0 0 0 0 0 0 0 0 0 0 0 0 0 0 0 0 0
0 0 0 0 0 0 0 0 0 0 0 0 0 0 0 0 0 0 0 0 0 0 0 0 0 0 0 0 0 0 0 0 0 0 0 0 0 0
0 0 0 0 0 0 0 0 0 0 0 0 0 0 0 0 0 0 0 0 0 0 0 0 0 0 0 0 0 0 0 0 0 0 0 0 0 0
0 0 0 0 0 0 0 0 0 0 0 0 0 0 0 0 0 0 0 0 0 0 0 0 0 0 0 0 0 0 0 0 0 0 0 0 0 0
0 0 0 0 0 0 0 0 0 0 0 0 0 0 0 0 0 0 0 0 0 0 0 0 0 0 0 0 0 0 0 0 0 0 0 0 0 0
0 0 0 0 0 0 0 0 0 0 0 0 0 0 0 0 0 0 0 0 0 0 0 0 0 0 0 0 0 0 0 0 0 0 0 0 0 0
0 0 0 0 0 0 0 0 0 0 0 0 0 0 0 0 0 0 0 0 0 0 0 0 0 0 0 0 0 0 0 0 0 0 0 0 0 0
0 0 0 0 0 0 0 0 0 0 0 0 0 0 0 0 0 0 0 0 0 0 0 0 0 0 0 0 0 0 0 0 0 0 0 0 0 0
0 0 0 0 0 0 0 0 0 0 0 0 0 0 0 0 0 0 0 0 0 0 0 0 0 0 0 0 0 0 0 0 0 0 0 0 0 0
0 0 0 0 0 0 0 0 0 0 0 0 0 0 0 0 0 0 0 0 0 0 0 0 0 0 0 0 0 0 0 0 0 0 0 0 0 0
0 0 0 0 0 0 0 0 0 0 0 0 0 0 0 0 0 0 0 0 0 0 0 0 0 0 0 0 0 0 0 0 0 0 0 0 0 0
0 0 0 0 0 0 0 0 0 0 0 0 0 0 0 0 0 0 0 0 0 0 0 0 0 0 0 0 0 0 0 0 0 0 0 0 0 0
0 0 0 0 0 0 0 0 0 0 0 0 0 0 0 0 0 0 0 0 0 0 0 0 0 0 0 0 0 0 0 0 0 0 0 0 0 0
0 0 0 0 0 0 0 0 0 0 0 0 0 0 0 0 0 0 0 0 0 0 0 0 0 0 0 0 0 0 0 0 0 0 0 0 0 0
0 0 0 0 0 0 0 0 0 0 0 0 0 0 0 0 0 0 0 0 0 0 0 0 0 0 0 0 0 0 0 0 0 0 0 0 0 0
Wind_Speed
10 10 8 7 7 7 7 8 9 12 12 9 7 7 8 7 13 9 8 17 20 20 20 19 18 16 16 16 15 14 12 11 12 14 19 24 28 30
8 9 9 7 7 6 7 7 8 9 11 8 8 10 10 10 15 11 10 20 20 20 20 19 18 16 16 15 14 14 12 12 12 13 19 23 26 27
9 10 10 9 8 7 7 7 7 7 10 10 8 9 10 10 10 9 9 9 10 18 20 19 18 16 15 15 14 13 12 12 12 13 17 21 24 25
10 10 10 9 9 8 7 8 7 7 8 11 9 8 9 9 9 10 10 9 8 16 19 19 18 16 14 14 13 11 10 10 11 12 14 18 21 23
9 10 10 10 9 8 8 7 6 7 6 7 9 7 6 7 9 10 10 8 10 13 16 16 15 15 13 13 12 11 9 9 10 10 12 15 18 21
8 8 9 9 9 9 8 7 6 6 6 7 8 7 7 8 8 9 10 9 10 10 10 11 12 14 13 12 13 12 9 8 9 10 11 12 16 20
8 8 9 13 16 13 11 8 7 5 5 6 7 8 8 9 8 8 10 10 11 5 7 7 7 6 6 9 10 10 10 9 10 10 11 12 14 19
8 8 9 10 15 18 20 19 15 9 7 5 5 8 9 9 9 9 10 10 7 6 8 9 7 6 4 4 7 9 9 10 11 11 12 13 14 17
8 7 8 9 13 8 12 16 14 18 16 8 6 7 8 8 9 10 9 10 10 9 8 7 5 6 4 4 7 8 7 9 11 12 13 14 15 17
8 8 7 8 10 10 7 7 7 8 12 8 6 8 8 8 7 8 9 10 10 7 5 5 5 5 5 4 6 6 6 7 9 13 14 14 15 16
8 7 7 7 14 17 7 7 8 7 13 17 17 15 17 17 12 6 7 8 8 5 4 4 5 5 4 3 3 4 5 6 8 12 14 14 15 15
6 6 11 12 15 16 6 5 8 8 8 9 11 12 10 10 14 6 6 6 6 6 4 6 4 5 4 3 2 2 2 4 7 9 13 14 16 11
6 4 5 15 16 16 13 5 10 10 6 7 7 6 6 5 6 5 5 5 6 6 5 6 5 4 4 4 3 2 1 1 2 5 10 15 16 13
6 5 7 14 15 15 11 13 16 12 5 6 6 6 6 6 6 7 7 7 7 9 9 7 5 5 4 4 3 3 1 0 1 2 5 11 13 13
6 13 15 15 13 9 12 16 12 5 5 5 6 6 6 7 7 6 7 7 8 8 7 8 7 6 5 4 4 3 2 2 1 1 3 6 6 9
7 10 14 13 10 11 10 8 5 5 5 5 6 6 6 6 6 7 7 7 6 5 6 6 7 6 5 5 4 3 2 1 1 1 3 4 4 5
8 4 3 4 4 4 4 4 4 4 5 5 5 6 7 8 8 7 6 6 5 5 6 5 5 4 5 3 2 2 2 1 0 1 4 5 4 4
9 5 5 5 5 5 5 5 4 4 4 5 5 6 7 8 8 7 7 6 6 5 6 5 4 3 1 1 3 2 1 1 1 2 3 6 4 3
6 5 5 5 5 5 4 4 4 4 4 4 5 6 6 7 8 8 8 7 6 5 5 5 4 3 1 1 3 5 2 1 2 3 4 6 5 3
5 5 6 6 5 5 5 4 4 4 4 4 5 5 6 6 7 7 7 8 7 6 5 4 4 3 2 1 2 4 8 3 3 5 5 7 8 10
6 6 6 6 5 5 5 5 4 3 4 4 4 5 5 6 6 7 7 11 8 5 6 5 5 7 3 1 2 3 6 12 9 5 5 8 8 6
6 6 6 6 5 5 5 4 4 3 3 3 4 4 5 5 6 7 7 7 6 6 5 4 5 4 3 3 4 4 5 7 13 19 16 8 6 7
6 6 6 6 5 5 4 4 4 3 2 2 3 4 5 5 5 6 6 7 6 6 5 5 4 4 4 4 5 5 7 8 8 12 13 18 25 27
Wind_Direction
307 306 303 294 283 275 275 275 280 292 296 293 297 300 302 298 301 302 299 295 293 290 288 287 285 286 289 288 282 271 264 261 251 231 219 213 209 205
307 308 308 305 300 289 284 278 272 276 284 291 295 296 301 307 307 308 299 300 297 292 287 285 283 283 285 288 281 271 260 254 247 233 221 216 210 205
310 314 313 311 311 306 296 285 278 276 282 291 291 295 300 302 306 304 297 294 290 292 289 285 282 278 279 284 278 274 259 250 241 231 223 216 211 202
311 312 314 316 314 311 310 303 294 292 290 298 302 301 302 307 311 310 311 305 299 294 291 286 279 275 274 277 275 271 256 246 237 227 221 213 207 199
305 308 311 314 313 312 312 316 314 320 314 306 307 310 311 324 324 318 314 310 306 301 296 290 281 274 271 275 275 265 249 238 231 222 217 210 200 193
297 301 307 310 309 312 317 318 321 321 323 321 318 322 325 331 331 329 324 324 315 304 306 303 293 283 272 271 269 261 244 234 230 220 209 199 189 182
293 295 302 317 325 329 329 328 329 324 325 324 323 327 329 334 334 328 322 319 310 311 326 310 299 282 266 267 267 258 237 226 225 218 203 191 183 179
287 291 298 309 320 329 330 333 337 333 327 320 320 322 318 319 318 320 322 323 316 326 326 306 297 285 270 258 262 257 234 219 217 209 198 184 177 175
278 282 296 307 319 306 319 330 332 332 330 322 306 300 300 303 307 311 315 313 298 299 302 290 289 290 284 281 271 254 232 215 209 201 193 184 179 174
278 274 275 281 296 310 316 320 314 317 320 317 290 281 287 288 287 296 303 304 292 288 299 287 299 294 292 283 274 254 233 215 206 197 190 183 178 175
286 280 286 274 299 317 323 314 312 310 323 325 324 323 324 326 328 324 320 320 314 308 331 310 303 301 293 280 277 264 233 214 205 194 188 182 175 169
293 290 303 307 310 320 319 308 309 308 319 323 323 323 322 322 330 326 313 312 311 302 333 335 312 316 308 298 294 283 238 207 199 189 182 178 172 168
306 298 291 312 320 326 331 314 313 329 330 319 317 317 320 319 315 307 293 285 284 276 300 328 312 311 306 307 308 308 301 210 180 183 178 174 175 173
310 299 294 314 325 331 333 327 334 340 326 321 324 326 327 325 317 309 298 284 267 266 275 278 275 296 313 309 309 320 322 354 126 171 170 167 172 172
314 322 325 328 333 330 326 333 341 333 320 328 328 325 319 313 312 311 305 297 285 274 272 266 260 265 269 275 298 308 336 357 30 138 149 156 164 165
317 320 326 329 330 329 333 337 334 326 333 326 323 319 318 321 322 323 321 321 312 303 288 275 269 258 255 260 264 281 302 302 332 111 121 115 126 143
329 320 315 317 318 319 323 324 325 331 336 326 325 328 330 332 330 329 323 325 321 322 321 314 291 262 247 272 286 295 309 335 353 90 117 107 97 123
344 329 323 323 322 324 328 327 326 328 329 328 328 330 333 332 330 331 333 330 327 324 323 324 326 315 281 282 332 307 336 7 47 72 111 108 95 82
345 326 323 321 319 320 318 318 321 323 323 326 329 330 332 333 334 337 338 335 332 326 324 326 335 338 353 359 343 360 8 56 74 70 79 97 101 91
329 325 323 320 316 317 316 316 316 320 325 328 327 328 331 333 336 339 338 338 336 333 334 337 342 344 338 335 347 355 13 53 99 100 98 93 86 82
325 323 320 319 316 313 313 312 311 312 320 324 325 327 330 333 336 337 337 341 345 339 340 336 327 333 318 352 58 31 28 42 64 91 109 109 100 92
322 320 319 317 317 311 309 311 312 310 318 323 324 327 329 333 336 337 340 340 339 337 334 332 337 351 22 67 81 73 57 52 54 55 52 70 117 123
322 320 318 316 316 312 310 311 311 308 311 320 326 328 332 335 335 337 339 341 341 344 351 359 11 32 49 63 76 78 76 71 70 68 60 77 92 99